Location: Eastlake (historical)
(39.0077°N, 122.6678°W)
Time: 12:48:35
(UTC+00:00)

Cosmos 2074 Rocket - Pass Details

Date: 25 November 2020
Orbit: 968 x 985 km, 82.9° (Epoch: 26 January)

Event Time Altitude Azimuth Distance (km) Brightness Sun altitude
Rises 14:11:43 0° 195° (SSW) 3,648 7.1 -10.4°
Reaches altitude 10° 14:14:15 10° 199° (SSW) 2,704 6.3 -9.9°
Maximum altitude 14:20:22 62° 279° (W) 1,087 4.0 -8.8°
Drops below altitude 10° 14:26:31 10° 360° (N) 2,717 6.1 -7.7°
Sets 14:29:05 0° 4° (N) 3,668 6.8 -7.2°
